Location: Camerons Lookout
(40.9833°S, 175.9333°E)
Time: 22:41:36
(UTC+00:00)

Cosmos 2297 Rocket - Pass Details

Date: 14 January 2026
Orbit: 838 x 843 km, 71.0° (Epoch: 16 February)

Event Time Altitude Azimuth Distance (km) Brightness Sun altitude
Rises 09:52:10 0° 199° (SSW) 3,426 6.7 -18.3°
Reaches altitude 10° 09:54:45 10° 192° (SSW) 2,485 5.6 -18.6°
Maximum altitude 10:00:13 46° 119° (ESE) 1,131 2.8 -19.2°
Enters shadow 10:02:30 31° 67° (ENE) 1,456 3.0 -19.5°
